Starlink 4675

operational
NORAD ID: 53601 Int'l Des: 2022-104 Owner: SPXS Country: US Constellation: starlink
LEOCIRCULAR

Über Starlink 4675

Beschreibung wird geladen...

Live-Position

3D-Globus wird geladen...

Nächste Überflüge

Höhenverlauf

Altitude vs Time

uPlot chart will show altitude changes over time

Zweizeiliger Elementsatz

1 53601U 22104P 25303.83766961 .00001440 00000-0 10855-3 0 9994
2 53601 53.2152 106.9040 0001032 78.4942 281.6166 15.08839659176014
Epoch: 30. Okt. 2025 • Age: 21 hours

Aktueller Status

Höhe 540.7 km
Geschwindigkeit 7.59 km/s
Subsatellitenpunkt 0.42°N, 21.13°W
Startdatum 28. Aug. 2022
Alter 3.1 years
Typ internet

Technische Details

Klassifizierung Payload
Masse 300.00 kg
Trockenmasse 290.00 kg
Gesamtmasse 300.00 kg
Länge 0.20 m
Durchmesser 2.80 m
Spannweite 9.00 m
Form Box + pan
Hersteller SPXS
Bus-Typ Starlink
Phasenstatus In Orbit
Besitzer/Staat SPXS/US

Große Konstellationen

Loading constellations...